Weather History for MDPP - September, 2013

Change the Weather History Date:

Sunday, September 15, 2013

  Actual Average Record
Temperature  
Mean Temperature 82 °F -  
Max Temperature 90 °F 87 °F 95 °F (1999)
Min Temperature 73 °F 74 °F 68 °F (2008)
Cooling Degree Days 16    
Growing Degree Days 32 (Base 50)    
Moisture  
Dew Point 78 °F    
Average Humidity 80    
Maximum Humidity 94    
Minimum Humidity 65    
Precipitation  
Precipitation 0.00 in - - ()
Sea Level Pressure  
Sea Level Pressure 29.93 in    
Wind  
Wind Speed 6 mph ()    
Max Wind Speed 21 mph    
Max Gust Speed -    
Visibility 7.0 miles    
Events      
Averages and records for this station are not official NWS values.
T = Trace of Precipitation, MM = Missing Value Source: Averaged Metar Reports

Daily Weather History Graph

Daily Weather History Graph

Search for Another Location

Airport or City:

Trip Planner

Search our weather history database for the weather conditions in past years. The results will help you decide how hot, cold, wet, or windy it might be!

Date:

Astronomy

Sep. 15, 2013 Rise Set
Actual Time 6:29 AM AST 6:44 PM AST
Civil Twilight 6:07 AM AST 7:06 PM AST
Nautical Twilight 5:42 AM AST 7:32 PM AST
Astronomical Twilight 5:16 AM AST 7:58 PM AST
Moon 3:46 PM AST (9/15) 2:31 AM AST (9/15)
Length of Visible Light 12h 58m
Length of Day
12h 14m
Waxing Gibbous, 82% of the Moon is Illuminated
Sep 15
Waxing Gibbous
Sep 19
Full
Sep 26
Last Quarter
Oct 4
New
Oct 11
First Quarter

Hourly Weather History & Observations

Time (AST) Temp. Heat Index Dew Point Humidity Pressure Visibility Wind Dir Wind Speed Gust Speed Precip Events Conditions
2:00 AM 78.8 °F - 75.2 °F 89% 29.92 in 6.2 mi Calm Calm - N/A   Scattered Clouds
5:00 AM 77.0 °F - 73.4 °F 89% 29.92 in 6.2 mi Calm Calm - N/A   Scattered Clouds
8:00 AM 79 °F - 76 °F 87% 29.94 in 10 mi Calm Calm - -   Scattered Clouds
8:00 AM 78.8 °F - 75.2 °F 89% 29.92 in 6.2 mi Calm Calm - N/A   Partly Cloudy
9:00 AM 80.6 °F 86.2 °F 75.2 °F 84% 29.95 in 6.2 mi Calm Calm - N/A   Partly Cloudy
10:00 AM 86.0 °F 96.9 °F 77.0 °F 74% 29.95 in 6.2 mi East 6.9 mph - N/A   Partly Cloudy
11:00 AM 88 °F - 78 °F 65% 29.97 in 10 mi East 11.2 mph - -   Partly Cloudy
11:00 AM 87.8 °F 102.5 °F 78.8 °F 75% 29.95 in 6.2 mi East 11.5 mph - N/A   Scattered Clouds
12:00 PM 89.6 °F 104.7 °F 78.8 °F 70% 29.98 in 6.2 mi ENE 11.5 mph - N/A   Scattered Clouds
1:00 PM 89.6 °F 104.7 °F 78.8 °F 70% 29.98 in 6.2 mi East 11.5 mph - N/A   Scattered Clouds
2:00 PM 88 °F - 80 °F 73% 29.93 in 10 mi East 11.2 mph - -   Partly Cloudy
2:00 PM 87.8 °F 104.9 °F 80.6 °F 79% 29.92 in 6.2 mi East 11.5 mph - N/A   Scattered Clouds
3:00 PM 87.8 °F 104.9 °F 80.6 °F 79% 29.89 in 6.2 mi East 17.3 mph - N/A   Scattered Clouds
4:00 PM 87.8 °F 104.9 °F 80.6 °F 79% 29.86 in 6.2 mi East 17.3 mph - N/A   Scattered Clouds
5:00 PM 86 °F - 79 °F 75% 29.90 in 10 mi East 15.7 mph - -   Scattered Clouds
5:00 PM 86.0 °F 99.3 °F 78.8 °F 79% 29.89 in 6.2 mi East 17.3 mph - N/A   Scattered Clouds
6:00 PM 86.0 °F 99.3 °F 78.8 °F 79% 29.89 in 6.2 mi East 20.7 mph - N/A   Scattered Clouds
7:00 PM 86.0 °F 99.3 °F 78.8 °F 79% 29.89 in 6.2 mi East 9.2 mph - N/A   Scattered Clouds
8:00 PM 82.4 °F 90.9 °F 77.0 °F 84% 29.92 in 6.2 mi Calm Calm - N/A   Scattered Clouds
11:00 PM 80.6 °F 88.1 °F 78.8 °F 94% 29.98 in 6.2 mi Calm Calm - N/A   Scattered Clouds